Weather Roundup
Issued by NWS Corpus Christi, TX

Home | Current Version | Previous Version | Text Only | Print | Product List | Glossary On
Versions: 1 2 3 4 5 6 7 8 9 10 11 12 13 14 15 16 17 18 19 20 21 22 23 24 25 26 27 28 29 30 31 32 33 34 35 36 37 38 39 40 41 42 43 44 45 46 47 48 49 50
000
ASUS44 KCRP 231010
HRRCRP

SOUTH TEXAS REGIONAL WEATHER ROUNDUP
NATIONAL WEATHER SERVICE CORPUS CHRISTI TX
500 AM CDT MON OCT 23 2017


TXZ229>244-231100-
...CORPUS CHRISTI AREA OBSERVATIONS...

CITY           SKY/WX    TMP DP  RH WIND       PRES   REMARKS
CORPUS CHRISTI CLEAR     55  54  96 NW6       30.13S
NAS CORPUS CHR CLEAR     71  60  68 NE12      30.12S
ROCKPORT       PTCLDY    60  59  96 N6        30.13S
KINGSVILLE ARP FAIR      55  55 100 NW3       30.14S
ALICE          CLEAR     56  53  90 NW5       30.14S
$$

...VICTORIA AREA OBSERVATIONS...

CITY           SKY/WX    TMP DP  RH WIND       PRES   REMARKS
PORT LAVACA    PTCLDY    56  53  92 CALM      30.15R
VICTORIA       CLEAR     51  49  92 CALM      30.15R
BEEVILLE       FAIR      54  54 100 NE5       30.15R
PLEASANTON     CLEAR     51  47  84 CALM      30.17R
SAN ANTONIO    CLEAR     53  47  79 NW5       30.17S
$$

...LAREDO AREA OBSERVATIONS...

CITY           SKY/WX    TMP DP  RH WIND       PRES   REMARKS
LAREDO         CLEAR     61  55  81 CALM      30.16S
COTULLA        CLEAR     55  48  77 CALM      30.16R
DEL RIO        CLEAR     56  48  74 E7        30.14S
MCALLEN        PTCLDY    71  64  78 N6        30.13R
HEBBRONVILLE   CLEAR     55  53  92 CALM      30.15S
$$

...OTHER TEXAS OBSERVATIONS...

CITY           SKY/WX    TMP DP  RH WIND       PRES   REMARKS
BROWNSVILLE    CLOUDY    75  68  78 N3        30.10S
HOUSTON        CLEAR     55  50  83 N6        30.13S
COL. STATION   CLEAR     52  48  86 CALM      30.15S
AUSTIN         CLEAR     47  47 100 CALM      30.16S
WACO           CLEAR     46  44  93 MISG      30.14S FOG
FORT WORTH     CLEAR     50  45  83 SW6       30.09F
WICHITA FALLS  CLEAR     48  39  71 SW8       30.08F
LUBBOCK        CLOUDY    47  36  65 W8        30.12F
EL PASO        PTCLDY    54  23  30 N3        30.24S
$$

...MARINE OBSERVATIONS...

STATION/POSITION TIME  SKY/WX   TEMP    WIND        PRES    VSBY  WAVE   SWELL
                                AIR SEA DIR/SP/G                  HT/PER HT/PER
                 (UTC)          (F)     (DEG/KT/KT) (MB)    (MI)  (FT/S) (FT/S)
PORT ARANSAS     NOT AVBL
BUOY 90 E PORT A 0850            74 82  360/ 10/ 14 1019.3          4/ 6   3/ 6
BUOY 200 E PT IS 0850            79 83   10/ 14/ 17 1017.4          7/ 8   5/ 8
BUOY 15 E GALVES 0950            68 78  360/ 16/ 17 1019.3S         3/ 4   2/ 8
$$




USA.gov is the U.S. government's official web portal to all federal, state and local government web resources and services.